OBJECT F, 63296

Orbit data source: Space-Track

You're viewing an Uncataloged Satellite

Recently launched and/or uncataloged satellites may have evolving metadata. Metadata may include but not limited to: Owner, Maufacturer, Bus, Motor, and Mission.

OBJECT F, 63296 is a satellite owned by Yunyao yuhang (CN) in SSO that was launched on Mon, 17 Mar 2025 UTC via a GUSHENXING 1 launch vehicle from the Jiuquan Satellite Launch Center, China (JSC). Unknown objects in Earth's orbit typically refer to objects detected orbiting the Earth but have not yet been identified or cataloged. These objects could be anything from previously untracked satellites, spent rocket stages, debris from satellite collisions, or even natural meteoroids temporarily captured by Earth's gravity.

Loading next visibility...
Identifier
63296, 2025-055F
Orbit
SSO
Last TLE update
1 day ago
Origin
Flag of CNYYAO (CN / PRC)
Manufacturer
Changguang WJ
Mission
Operational spacecraft
Bus & Motor
YY-1, Unknown motor
Mass
~50 kg wet, ~50 kg dry
Launch date (UTC)
2025-03-17 (1 month ago)
Launch vehicle
GUSHENXING 1
Launch site
Jiuquan Satellite Launch Center, China (JSC)
Object type
Unknown
Shape & HBR
Unknown
Radar Cross Section
Medium (>0.1 m² and <1 m²)

Expand to show TLE details & history

TLE from 1 day ago
0 OBJECT F
1 63296U 25055F   25119.18516369  .00014865  00000-0  89367-3 0  9990
2 63296  97.6067 254.2850 0013765 143.7367 216.4799 15.10885193  6434
Epoch: 2025-04-29T04:26Z
Definitive object data (Epoch: 2025-04-29T04:26:38.142Z)
Latitude
0.00002°
Longitude
-29.76239°
Altitude
544.227 km
Speed
7.586 km/s
True Right ascension
16h 57m 08s
True Declination
0° 00' 00"
Sunlit
Object was in full shadow at TLE epoch
Visualization TLE readout
Latitude
27.4579°
Longitude
155.40781°
Altitude
527.596 km
Speed
7.607 km/s
Apparent Right ascension
05h 17m 38s
Apparent Declination
-4° 41' 11"
Sunlit
Object is in daylight
Visualization observer readout
Local Sidereal Time
17:17:25
Azimuth
359.905° N
Elevation
-54.77°
Doppler factor
1
Orbital elements
Apogee altitude
539.995 km
Perigee altitude
520.976 km
Semi-major axis
6,908.623 km
Eccentricity
0.0013765
Inclination
97.6067°
RAAN
254.285°
Arg. of periapsis
143.7367°
True anomaly
216.38625°
Mean anomaly
216.4799°
Eccentric anomaly
216.43306°
Mean motion
3.77969 °/min
BSTAR
0.00089367
Orbital period
95.25 mins
Loading maneuver chart data...
Loading SW <> Apogee altitude chart data...
Loading historical data...
Loading historical data...
Loading historical data...
Loading historical data...
Loading historical data...
Loading historical data...
Loading historical data...

OBJECT F Visibility forecast

Observer location: undefined°, undefined°

Span
Click to sort rows by Start time (UTC) header in descending order
Start Az.
Max El. time (UTC)
Max El. Az.
Max El.
End time (UTC)
End Az.
5 mins2025-04-30 22:20:31.965Z344.446° N2025-04-30 22:22:31.965Z295.309° NW30.885°2025-04-30 22:25:31.965Z224.374° SW
5 mins2025-05-01 09:02:31.965Z170.063° S2025-05-01 09:04:31.965Z316.747° NNW44.665°2025-05-01 09:07:31.965Z346.428° N
|